星链-37014(STARLINK-37014)

导读

STARLINK-37014(NORAD编号68216)是美国SpaceX公司星链(Starlink)卫星互联网项目的低轨通信卫星。星链项目计划在近地轨道部署上万颗卫星,为全球提供高带宽互联网接入服务。该卫星运行于约550公里高度的近地轨道,属于星链第一代组网卫星,采用可烧毁设计,寿命末期会主动降轨在大气层中完全焚毁,降低太空垃圾风险。作为低轨卫星,它以约2.8万公里/小时的速度绕地球运行,单圈周期约90分钟,作为太空移动基站为用户提供卫星通信服务。

基本信息
目录编号:
68216
目录名称:
STARLINK-37014
国际标识:
2026-053K
轨道中心:
EARTH
卫星名称:
星链-37014
卫星全名:
星链-37014(STARLINK-37014)
卫星状态:
在轨 (已飞行178 天)
发射日期:
2026-03-17 UTC
国别 :
美国 (US)
星等 :
--
该卫星已列入 空间交会检测服务 Space Conjunction Data Service (SCDS) ,当前飞行风险评估等级: 无高风险
轨道信息
数据来源 国际轨道数据
星历时间: 2026-09-11T10:44:53+0800
16小时前
查看轨道信息
半长轴: 6843.656km
偏心率: 0.0001991
轨道倾角: 97.282°
近地点辐角 95.233°
升交点赤经 128.001°
平近点角 264.914°
近地点: 464.156km
远地点: 466.882km
周期: 93.906分钟
每日圈数: 15.334533
详细信息
固有亮度:
5
最大亮度:
2.5
卫星平台:
Starlink V1.0
覆盖范围:
全球
运营商:
太空探索技术公司
运营商所在国:
美国
制造商(研发单位):
太空探索技术公司
制造商所在国:
美国
使用方式:
暂无
卫星简介
Starlink 计划是 SpaceX 推出的全球卫星互联网项目,通过发射低轨道卫星,为全球尤其是偏远地区提供高速、低延迟的互联网服务。自 2019 年起,Starlink 已部署数千颗卫星,旨在缩小全球数字鸿沟,推动互联网普及。该项目还为军事、航空等行业提供通信支持,带来广泛经济效益。
2D轨道图
3D轨道图
轨道高度分析图
轨道倾角分析图
轨道综合分析图
查看轨道综合分析图
交会数据列表
事件ID 空间交会对象 最接近时刻(TCA) 交会距离 交会风险概率(CRP) 交会风险指数(CRI) 操作
CDM_260913-162205-188506-821622
2026-09-13T
16:22:27+0000
1.965 km
极远距离
2.521529E-6 低风险 0.43
CDM_260912-145905-084106-821621
2026-09-12T
14:59:47+0000
2.245 km
极远距离
1.783431E-6 低风险 0.4
CDM_260913-212305-229406-821621
2026-09-13T
21:23:06+0000
2.489 km
极远距离
1.762196E-6 低风险 0.4
CDM_260911-205204-865706-821622
2026-09-11T
20:52:33+0000
2.848 km
极远距离
1.418368E-6 低风险 0.38
CDM_260913-024005-340606-821621
2026-09-13T
02:40:58+0000
2.889 km
极远距离
1.375434E-6 低风险 0.38
CDM_260912-154605-084106-821621
2026-09-12T
15:46:43+0000
2.673 km
极远距离
1.296756E-6 低风险 0.37
CDM_260914-000505-866306-821621
2026-09-14T
00:05:50+0000
2.939 km
极远距离
1.270631E-6 低风险 0.37
与全量物体交会距离演化趋势
与全量物体交会风险概率演化趋势